Meteo Giornale » Osservazioni meteo Italia » Reggio Calabria

ore: 12:50 - Osservazioni Meteo Reggio Calabria
Lat. 38° 4' N Lon. 15° 39' E Alt. 11 metri s.l.m.

molto_nuvoloso Europe/Rome

13 °C

Molto Nuvoloso

Temp. 24 Ore

7 °C

13 °C

Nord

9.3 Km/h

Dew point 8 °C

Umidità 71 %

Visibilità  10 Km

Il sole sorge alle ore 07:03

Il sole tramonta alle ore 17:17

Data e Ora Cielo e Fenomeni T °C DP °C Um. % Pres. hPa Vis. km Vento km/h
Oggi h: 12:50 molto_nuvoloso Molto Nuvoloso 13 8 71 1018 10 N 9.3
Oggi h: 12:20 molto_nuvoloso Molto Nuvoloso 13 8 71 1018 10 N 7.4
Oggi h: 11:50 molto_nuvoloso Molto Nuvoloso 12 8 76 1019 10 N 9.3
Oggi h: 11:20 molto_nuvoloso Molto Nuvoloso 12 8 76 1019 10 O/NO 7.4
Oggi h: 10:50 molto_nuvoloso Molto Nuvoloso 12 7 71 1019 10 N 5.5
Oggi h: 10:20 coperto Coperto 11 9 87 1019 10 N 5.5
Oggi h: 09:50 coperto_pioggia Pioggia Debole 10 8 87 1018 10 E 7.4
Oggi h: 09:20 coperto_pioggia Pioggia Debole 10 8 87 1018 10 E 11.1
Oggi h: 08:50 coperto_pioggia Pioggia Debole 10 8 87 1018 10 E/NE 7.4
Oggi h: 08:20 coperto Coperto 9 8 93 1017 10 N 5.5
Oggi h: 07:50 coperto Coperto 9 7 87 1017 10 N 3.7
Oggi h: 07:20 coperto Coperto 8 7 93 1016 10 NE 9.3
Oggi h: 06:50 coperto_pioggia Pioggia Debole 8 7 93 1016 10 N 1.8
Oggi h: 06:20 coperto_pioggia Pioviggine Leggera 9 6 81 1016 10 N 1.8
Oggi h: 05:50 coperto_pioggia Pioggia Debole 9 6 81 1016 10 NE 7.4
Oggi h: 05:20 coperto_pioggia Pioggia Debole 9 5 75 1015 10 N/NE 7.4
Oggi h: 04:50 coperto_pioggia Pioggia Debole 10 5 71 1015 10 NE 11.1
Oggi h: 04:20 coperto Coperto 9 5 75 1015 10 NE 7.4
Oggi h: 03:50 coperto Coperto 9 5 75 1015 10 NE 9.3
Oggi h: 03:20 coperto Coperto 9 5 75 1015 10 E/NE 9.3
Oggi h: 02:50 molto_nuvoloso Molto Nuvoloso 9 5 75 1015 10 NE 9.3
Oggi h: 02:20 molto_nuvoloso Molto Nuvoloso 9 5 75 1015 10 E/NE 7.4
Oggi h: 01:50 molto_nuvoloso Molto Nuvoloso 8 5 81 1016 10 N 5.5
Oggi h: 01:20 coperto_pioggia Pioviggine 9 4 70 1016 10 NE 9.3
Oggi h: 00:50 coperto_pioggia Pioggia Debole 9 4 70 1016 10 N 5.5
Oggi h: 00:20 molto_nuvoloso Molto Nuvoloso 8 4 75 1016 10 E/NE 9.3
Ieri h: 23:50 molto_nuvoloso Molto Nuvoloso 8 4 75 1016 10 N 5.5
Ieri h: 23:20 coperto Coperto 8 4 75 1017 10 NE 7.4
Ieri h: 22:50 molto_nuvoloso Molto Nuvoloso 7 3 75 1017 10 N 5.5
Ieri h: 22:20 poco_nuvoloso Poco Nuvoloso 7 3 75 1016 10 E/NE 9.3
Ieri h: 21:50 poco_nuvoloso Poco Nuvoloso 9 4 70 1017 10 E 9.3
Ieri h: 21:20 molto_nuvoloso Molto Nuvoloso 10 4 66 1017 10 E 7.4
Ieri h: 20:50 coperto Coperto 11 4 61 1017 10 O/NO 7.4
Ieri h: 20:20 coperto Coperto 11 3 57 1017 10 O/NO 9.3
Ieri h: 19:50 coperto Coperto 11 1 50 1017 10 N 5.5
Ieri h: 19:20 coperto Coperto 11 1 50 1017 10 E 9.3
Ieri h: 18:50 coperto Coperto 10 0 49 1017 10 E/NE 9.3
Ieri h: 18:20 coperto Coperto 10 0 49 1017 10 E 9.3
Ieri h: 17:50 molto_nuvoloso Molto Nuvoloso 10 -0 49 1017 10 NE 11.1
Ieri h: 17:20 sereno Sereno 10 -1 46 1016 10 NE 16.7
Ieri h: 16:50 poco_nuvoloso Poco Nuvoloso 11 -1 43 1016 10 N 16.7
Ieri h: 16:20 poco_nuvoloso Poco Nuvoloso 12 -1 40 1016 10 N 16.7
Ieri h: 15:50 nuvoloso Nuvoloso 12 -0 43 1016 10 N 20.3
Ieri h: 15:20 nuvoloso Nuvoloso 12 1 46 1017 10 N 20.3
Ieri h: 14:50 molto_nuvoloso Molto Nuvoloso 12 -0 43 1017 10 N 25.9
Ieri h: 14:20 molto_nuvoloso Molto Nuvoloso 13 -1 37 1017 10 N 25.9
Ieri h: 13:20 poco_nuvoloso Poco Nuvoloso 13 -1 37 1017 10 N 31.5
Ieri h: 12:50 sereno Sereno 13 0 40 1017 10 N 27.8